Weather History for PAGS - December, 2011

Change the Weather History Date:

Sunday, December 25, 2011

  Actual Average Record
Temperature  
Mean Temperature 34 °F -  
Max Temperature 39 °F 34 °F 49 °F (1989)
Min Temperature 30 °F 24 °F -10 °F (1955)
Degree Days  
Heating Degree Days 30    
Moisture  
Dew Point 29 °F    
Average Humidity 77    
Maximum Humidity 87    
Minimum Humidity 52    
Precipitation  
Precipitation 0.00 in - - ()
Sea Level Pressure  
Sea Level Pressure 29.54 in    
Wind  
Wind Speed 8 mph (South)    
Max Wind Speed 16 mph    
Max Gust Speed 22 mph    
Visibility 10 miles    
Events      
Averages and records for this station are not official NWS values.
T = Trace of Precipitation, MM = Missing Value Source: NWS Daily Summary

Daily Weather History Graph

Daily Weather History Graph

Search for Another Location

Airport or City:

Trip Planner

Search our weather history database for the weather conditions in past years. The results will help you decide how hot, cold, wet, or windy it might be!

Date:

Astronomy

Dec. 25, 2011 Rise Set
Actual Time 8:52 AM AKST 3:13 PM AKST
Civil Twilight 7:59 AM AKST 4:06 PM AKST
Nautical Twilight 7:05 AM AKST 5:00 PM AKST
Astronomical Twilight 6:16 AM AKST 5:49 PM AKST
Moon 9:21 AM AKST (12/25) 5:00 PM AKST (12/25)
Length of Visible Light 8h 07m
Length of Day
6h 21m
New Moon, 2% of the Moon is Illuminated
Dec 25
New Moon
Dec 31
First Quarter
Jan 8
Full
Jan 16
Last Quarter
Jan 22
New

Hourly Weather History & Observations

Time (AKST) Temp. Windchill Dew Point Humidity Pressure Visibility Wind Dir Wind Speed Gust Speed Precip Events Conditions
12:16 AM 39.2 °F 33.0 °F 35.6 °F 87% 29.44 in 10.0 mi SE 9.2 mph - N/A   Overcast
12:36 AM 39.2 °F 33.0 °F 35.6 °F 87% 29.45 in 10.0 mi SSE 9.2 mph - N/A   Overcast
12:56 AM 39.2 °F 33.6 °F 35.6 °F 87% 29.46 in 10.0 mi SE 8.1 mph - N/A   Overcast
1:16 AM 39.2 °F 34.2 °F 33.8 °F 81% 29.46 in 10.0 mi SE 6.9 mph - N/A   Overcast
1:36 AM 39.2 °F 34.2 °F 33.8 °F 81% 29.46 in 10.0 mi SE 6.9 mph - N/A   Overcast
1:56 AM 39.2 °F 34.2 °F 33.8 °F 81% 29.47 in 10.0 mi SSE 6.9 mph - N/A   Overcast
2:16 AM 39.2 °F 34.2 °F 33.8 °F 81% 29.48 in 8.0 mi SSW 6.9 mph - N/A   Overcast
2:36 AM 37.4 °F - 33.8 °F 87% 29.47 in 9.0 mi Calm Calm - N/A   Overcast
2:56 AM 37.4 °F - 33.8 °F 87% 29.47 in 10.0 mi Calm Calm - N/A   Overcast
3:16 AM 37.4 °F 34.9 °F 33.8 °F 87% 29.47 in 10.0 mi ESE 3.5 mph - N/A   Overcast
3:36 AM 37.4 °F 30.8 °F 33.8 °F 87% 29.46 in 10.0 mi SE 9.2 mph - N/A   Overcast
3:56 AM 37.4 °F 30.8 °F 33.8 °F 87% 29.46 in 10.0 mi SSE 9.2 mph - N/A   Overcast
4:16 AM 37.4 °F 32.8 °F 33.8 °F 87% 29.47 in 10.0 mi South 5.8 mph - N/A   Overcast
4:36 AM 37.4 °F 32.8 °F 33.8 °F 87% 29.46 in 10.0 mi SE 5.8 mph - N/A   Mostly Cloudy
4:56 AM 37.4 °F 34.9 °F 33.8 °F 87% 29.46 in 10.0 mi SE 3.5 mph - N/A   Overcast
5:16 AM 37.4 °F 32.1 °F 33.8 °F 87% 29.46 in 10.0 mi SE 6.9 mph - N/A   Overcast
5:36 AM 35.6 °F 30.7 °F 32.0 °F 87% 29.46 in 10.0 mi SE 5.8 mph - N/A   Mostly Cloudy
5:56 AM 37.4 °F 33.8 °F 33.8 °F 87% 29.46 in 10.0 mi South 4.6 mph - N/A   Mostly Cloudy
6:16 AM 35.6 °F 30.7 °F 32.0 °F 87% 29.45 in 10.0 mi SE 5.8 mph - N/A   Overcast
6:36 AM 37.4 °F 32.1 °F 33.8 °F 87% 29.45 in 10.0 mi SSW 6.9 mph - N/A   Overcast
6:56 AM 37.4 °F 30.8 °F 32.0 °F 81% 29.45 in 10.0 mi SSW 9.2 mph - N/A   Overcast
7:36 AM 37.4 °F 31.4 °F 30.2 °F 75% 29.45 in 10.0 mi SSW 8.1 mph - N/A   Overcast
7:56 AM 35.6 °F 31.7 °F 30.2 °F 81% 29.45 in 10.0 mi South 4.6 mph - N/A   Mostly Cloudy
8:16 AM 35.6 °F 29.9 °F 28.4 °F 75% 29.46 in 10.0 mi South 6.9 mph - N/A   Mostly Cloudy
8:36 AM 35.6 °F 29.9 °F 28.4 °F 75% 29.47 in 10.0 mi SW 6.9 mph - N/A   Mostly Cloudy
8:56 AM 35.6 °F 28.0 °F 28.4 °F 75% 29.48 in 10.0 mi SW 10.4 mph - N/A   Mostly Cloudy
9:16 AM 37.4 °F 32.1 °F 28.4 °F 70% 29.49 in 10.0 mi SSW 6.9 mph - N/A   Mostly Cloudy
9:36 AM 35.6 °F 27.5 °F 28.4 °F 75% 29.50 in 10.0 mi WSW 11.5 mph 16.1 mph N/A   Overcast
9:56 AM 35.6 °F 30.7 °F 28.4 °F 75% 29.50 in 10.0 mi SSW 5.8 mph - N/A   Overcast
10:16 AM 35.6 °F - 28.4 °F 75% 29.51 in 10.0 mi Calm Calm - N/A   Mostly Cloudy
10:36 AM 35.6 °F 30.7 °F 28.4 °F 75% 29.52 in 10.0 mi West 5.8 mph - N/A   Mostly Cloudy
10:56 AM 35.6 °F 27.5 °F 26.6 °F 70% 29.53 in 10.0 mi WSW 11.5 mph 17.3 mph N/A   Overcast
11:16 AM 35.6 °F 25.9 °F 26.6 °F 70% 29.53 in 10.0 mi WSW 16.1 mph 21.9 mph N/A   Overcast
11:36 AM 35.6 °F 26.6 °F 26.6 °F 70% 29.55 in 10.0 mi SW 13.8 mph 20.7 mph N/A   Mostly Cloudy
11:56 AM 35.6 °F 27.5 °F 26.6 °F 70% 29.56 in 10.0 mi WSW 11.5 mph 21.9 mph N/A   Mostly Cloudy
12:16 PM 35.6 °F 27.5 °F 26.6 °F 70% 29.57 in 10.0 mi SW 11.5 mph 17.3 mph N/A   Scattered Clouds
12:36 PM 35.6 °F 29.2 °F 26.6 °F 70% 29.58 in 10.0 mi SW 8.1 mph 17.3 mph N/A   Scattered Clouds
12:56 PM 35.6 °F 28.0 °F 23.0 °F 60% 29.58 in 10.0 mi SW 10.4 mph - N/A   Mostly Cloudy
1:16 PM 35.6 °F 28.6 °F 21.2 °F 56% 29.59 in 10.0 mi SW 9.2 mph - N/A   Mostly Cloudy
1:36 PM 35.6 °F 28.6 °F 19.4 °F 52% 29.60 in 10.0 mi WSW 9.2 mph 18.4 mph N/A   Partly Cloudy
1:56 PM 35.6 °F 27.1 °F 19.4 °F 52% 29.59 in 10.0 mi SW 12.7 mph 19.6 mph N/A   Clear
2:16 PM 35.6 °F 27.1 °F 19.4 °F 52% 29.61 in 10.0 mi SSW 12.7 mph - N/A   Clear
2:36 PM 33.8 °F 25.3 °F 24.8 °F 70% 29.63 in 10.0 mi SSW 11.5 mph 17.3 mph N/A   Partly Cloudy
2:56 PM 33.8 °F 28.6 °F 24.8 °F 70% 29.64 in 10.0 mi South 5.8 mph - N/A   Mostly Cloudy
3:16 PM 33.8 °F 27.0 °F 26.6 °F 75% 29.65 in 10.0 mi SSW 8.1 mph 18.4 mph N/A   Mostly Cloudy
3:36 PM 32.0 °F 24.2 °F 24.8 °F 75% 29.66 in 10.0 mi SSE 9.2 mph - N/A   Clear
3:56 PM 30.2 °F 21.3 °F 24.8 °F 80% 29.67 in 10.0 mi ESE 10.4 mph - N/A   Partly Cloudy
4:16 PM 30.2 °F 22.6 °F 26.6 °F 86% 29.68 in 10.0 mi SE 8.1 mph - N/A   Scattered Clouds
4:36 PM 30.2 °F 21.9 °F 26.6 °F 86% 29.69 in 10.0 mi SE 9.2 mph - N/A   Partly Cloudy
4:56 PM 30.2 °F 21.9 °F 24.8 °F 80% 29.69 in 10.0 mi ESE 9.2 mph - N/A   Partly Cloudy
5:16 PM 32.0 °F 24.8 °F 24.8 °F 75% 29.70 in 10.0 mi South 8.1 mph - N/A   Clear
5:36 PM 30.2 °F 24.3 °F 24.8 °F 80% 29.70 in 10.0 mi South 5.8 mph - N/A   Clear
5:56 PM 30.2 °F 23.4 °F 23.0 °F 75% 29.70 in 10.0 mi SE 6.9 mph - N/A   Partly Cloudy
6:16 PM 30.2 °F 22.6 °F 24.8 °F 80% 29.71 in 10.0 mi SE 8.1 mph - N/A   Mostly Cloudy
6:36 PM 32.0 °F 24.2 °F 24.8 °F 75% 29.72 in 10.0 mi SSE 9.2 mph - N/A   Overcast
6:56 PM 32.0 °F - 24.8 °F 75% 29.72 in 10.0 mi Calm Calm - N/A   Overcast
7:16 PM 32.0 °F 28.7 °F 26.6 °F 80% 29.73 in 10.0 mi SSE 3.5 mph - N/A   Overcast
7:36 PM 32.0 °F 27.5 °F 24.8 °F 75% 29.73 in 10.0 mi SSE 4.6 mph - N/A   Overcast
7:56 PM 32.0 °F 28.7 °F 24.8 °F 75% 29.73 in 10.0 mi South 3.5 mph - N/A   Scattered Clouds
8:16 PM 32.0 °F 27.5 °F 23.0 °F 69% 29.74 in 10.0 mi SSE 4.6 mph - N/A   Clear
8:36 PM 30.2 °F 23.4 °F 24.8 °F 80% 29.73 in 10.0 mi SE 6.9 mph - N/A   Clear
8:56 PM 32.0 °F 24.2 °F 24.8 °F 75% 29.72 in 10.0 mi ESE 9.2 mph - N/A   Mostly Cloudy
9:16 PM 32.0 °F 24.8 °F 24.8 °F 75% 29.73 in 10.0 mi SE 8.1 mph - N/A   Mostly Cloudy
9:36 PM 32.0 °F 25.6 °F 24.8 °F 75% 29.73 in 10.0 mi SE 6.9 mph - N/A   Overcast
9:56 PM 33.8 °F 27.7 °F 24.8 °F 70% 29.73 in 10.0 mi SE 6.9 mph - N/A   Overcast
10:16 PM 33.8 °F 28.6 °F 24.8 °F 70% 29.72 in 10.0 mi SE 5.8 mph - N/A   Overcast
10:36 PM 33.8 °F 25.8 °F 24.8 °F 70% 29.72 in 10.0 mi SE 10.4 mph - N/A   Overcast
10:56 PM 33.8 °F 25.8 °F 23.0 °F 65% 29.72 in 10.0 mi SE 10.4 mph - N/A   Mostly Cloudy
11:36 PM 33.8 °F 23.9 °F 23.0 °F 65% 29.70 in 10.0 mi SE 15.0 mph 20.7 mph N/A   Mostly Cloudy
11:56 PM 33.8 °F 24.3 °F 23.0 °F 65% 29.69 in 10.0 mi SE 13.8 mph 18.4 mph N/A   Overcast